Temp
88 89 90 88 89 90 92 93 89 88 87 86 85 85 83 81 85 84 82 80 79 83
87 86 87 87 87 90 88 90 89 88 87 87 85 84 82 85 82 84 82 80 78 81
87 87 86 86 85 85 86 86 85 85 84 85 85 83 82 79 81 80 80 80 76 77
87 87 87 86 86 86 86 85 84 80 79 80 83 80 78 79 80 79 78 78 78 77
89 88 87 87 87 86 84 84 82 82 81 82 81 81 79 78 79 76 75 76 76 72
88 88 87 86 86 84 83 83 83 81 79 80 79 78 77 75 76 76 76 75 74 75
90 89 88 87 85 85 84 81 80 78 75 75 75 76 76 72 72 73 76 75 70 69
89 89 87 85 84 83 82 80 77 70 69 70 72 72 73 77 77 75 71 71 70 69
88 87 85 84 83 81 78 75 71 72 72 72 73 69 68 73 73 70 70 69 70 69
87 86 84 84 83 81 76 74 72 71 72 73 76 65 65 67 74 72 74 74 72 73
87 85 84 83 82 80 78 73 70 70 72 74 72 64 63 65 74 74 74 74 74 71
88 85 84 82 81 81 78 72 69 73 73 71 71 62 61 65 72 67 70 70 67 71
87 85 83 82 81 80 78 74 70 69 71 69 72 60 59 63 69 67 67 67 67 64
86 83 82 81 80 77 73 74 69 69 71 72 73 69 58 58 70 66 65 65 65 66
MSLP
1008.31 1008.36 1008.30 1008.33 1008.37 1008.08 1007.71 1007.46 1007.65 1008.02 1008.55 1008.90 1009.24 1009.36 1009.54 1009.80 1009.82 1009.86 1010.29 1010.60 1010.94 1010.90
1007.88 1008.18 1008.02 1008.02 1008.15 1007.86 1007.68 1007.52 1007.63 1007.77 1007.95 1008.13 1008.38 1008.72 1009.00 1008.96 1008.94 1008.93 1009.30 1009.69 1010.20 1010.29
1007.34 1007.66 1007.88 1008.02 1007.99 1007.90 1007.72 1007.60 1007.47 1007.50 1007.51 1007.48 1007.64 1007.93 1008.27 1008.50 1008.52 1008.54 1008.75 1008.99 1009.36 1009.70
1006.87 1007.16 1007.34 1007.36 1007.33 1007.34 1007.35 1007.32 1007.23 1007.37 1007.36 1007.26 1007.10 1007.32 1007.67 1007.83 1007.83 1007.96 1008.27 1008.58 1008.78 1009.05
1006.42 1006.68 1006.76 1006.71 1006.80 1006.94 1006.93 1006.89 1007.05 1006.97 1006.73 1006.56 1006.45 1006.73 1006.93 1007.13 1007.41 1007.67 1007.94 1008.17 1008.53 1008.81
1005.90 1006.04 1006.20 1006.28 1006.35 1006.59 1006.54 1006.46 1006.46 1006.47 1006.42 1006.28 1006.28 1006.50 1006.78 1007.16 1007.34 1007.52 1007.74 1008.05 1008.18 1008.32
1005.12 1005.27 1005.45 1005.76 1006.08 1006.05 1006.08 1006.13 1006.17 1006.48 1006.67 1006.70 1006.66 1006.67 1006.80 1007.16 1007.38 1007.44 1007.49 1007.79 1008.02 1008.06
1004.56 1004.74 1005.06 1005.34 1005.56 1005.74 1005.76 1005.84 1006.32 1006.76 1006.78 1006.77 1006.82 1006.75 1006.68 1006.54 1006.59 1006.98 1007.45 1007.63 1007.70 1007.99
1004.11 1004.30 1004.66 1004.74 1004.97 1005.20 1005.67 1006.10 1006.38 1006.45 1006.46 1006.30 1006.27 1006.25 1006.44 1006.57 1006.91 1007.18 1007.23 1007.42 1007.67 1008.07
1003.68 1003.85 1004.03 1004.13 1004.34 1004.62 1005.15 1005.56 1005.80 1005.83 1005.95 1005.77 1005.70 1006.15 1006.67 1007.04 1006.73 1007.02 1006.86 1007.08 1007.41 1007.67
1003.16 1003.27 1003.39 1003.52 1003.79 1004.21 1004.70 1005.10 1005.35 1005.32 1005.35 1005.19 1005.39 1005.82 1006.36 1006.88 1006.60 1006.72 1007.04 1007.25 1007.31 1007.53
1002.48 1002.45 1002.70 1002.89 1003.19 1003.43 1003.98 1004.65 1004.78 1004.86 1004.78 1004.78 1004.89 1005.37 1005.83 1006.63 1006.70 1006.95 1007.00 1007.30 1007.49 1007.62
1001.82 1002.02 1002.17 1002.37 1002.54 1002.90 1003.27 1003.80 1004.23 1004.21 1004.45 1004.30 1004.23 1005.02 1005.56 1006.08 1006.16 1006.44 1006.51 1007.06 1007.50 1007.80
1001.25 1001.52 1001.66 1002.13 1002.26 1002.53 1003.11 1003.37 1003.70 1003.72 1003.62 1003.74 1003.73 1004.35 1005.14 1005.61 1005.87 1006.14 1006.56 1007.02 1007.36 1007.58
Wind_Speed
10 9 9 11 11 11 12 12 9 10 13 15 15 14 13 11 11 13 12 15 12 13
8 10 9 9 9 10 11 11 12 12 12 14 14 14 14 12 11 12 11 11 13 13
7 7 8 8 10 11 11 12 11 12 11 13 14 14 14 12 12 13 10 12 12 13
6 7 7 8 9 10 11 11 11 8 9 11 14 12 11 13 14 12 12 12 12 13
7 7 8 8 8 9 11 10 10 13 13 13 14 12 12 13 11 10 11 13 13 11
7 8 9 9 8 9 10 10 12 11 10 10 11 10 9 7 8 10 10 12 13 14
8 8 9 8 8 9 9 9 9 7 7 7 4 4 6 6 8 10 11 11 8 7
7 8 8 8 8 10 9 7 5 5 5 5 8 7 10 10 8 6 4 3 2 2
8 9 9 9 9 6 7 7 6 8 8 7 7 6 5 4 6 6 6 5 4 4
9 10 10 9 8 8 8 8 9 9 9 9 10 10 9 9 6 5 5 4 4 5
10 11 11 9 9 8 8 9 10 9 12 11 8 14 13 11 9 7 4 3 1 4
12 12 11 10 9 8 7 9 9 10 11 9 8 14 14 12 9 5 6 5 1 3
10 11 12 10 9 8 6 9 7 8 11 13 11 13 15 13 4 6 3 3 4 8
10 11 10 9 6 5 7 9 8 11 12 14 12 12 15 15 8 5 4 5 5 6
Wind_Direction
234 241 241 238 251 264 265 264 256 228 234 234 242 244 233 239 234 223 224 229 235 232
219 233 264 285 292 273 259 258 262 265 250 246 236 240 245 242 236 235 227 228 231 227
213 229 246 257 264 273 280 281 278 271 266 259 246 238 242 248 245 240 228 221 225 226
215 226 237 251 264 272 285 293 284 273 268 265 257 241 240 242 243 240 234 226 231 234
230 243 261 266 277 289 286 273 264 273 261 249 251 254 252 249 244 241 235 232 226 232
243 252 260 269 271 272 274 277 279 282 276 272 272 254 241 238 239 238 242 234 237 245
255 262 271 282 283 275 277 266 267 279 283 277 278 251 230 213 227 234 251 258 249 240
272 271 268 278 286 294 287 281 261 234 235 240 249 234 226 230 235 228 239 257 256 69
269 268 261 267 276 279 272 250 221 224 231 234 243 202 173 221 198 203 202 196 164 155
259 259 253 258 265 271 252 236 222 217 226 241 236 160 172 209 195 219 240 182 184 176
258 258 251 248 258 256 259 234 224 224 231 246 241 170 177 199 221 195 200 266 227 186
254 253 254 255 259 259 249 241 226 232 243 239 237 179 171 190 202 207 187 163 321 334
256 253 253 255 257 265 247 234 229 228 230 237 229 179 175 188 205 193 153 166 219 239
274 255 245 257 262 253 254 254 221 227 232 238 224 188 182 184 196 173 171 204 213 226